GFSNE_sfc_temp_057.txt.gz
Temp
45 45 43 46 46 47 47 47 45 41 43 41 43 47 50 52 56 56 55 61 65 65 65 65 67 68 69 70 70 70 70 70 70 70 71 71 71 71
46 45 44 45 46 46 46 47 46 44 41 45 43 46 48 56 55 56 55 60 63 65 63 62 63 64 68 68 68 68 68 68 69 69 69 70 70 70
44 44 44 45 44 45 44 45 46 45 42 47 47 48 45 47 51 52 55 54 58 64 64 63 63 63 63 66 66 66 67 67 68 68 68 68 69 68
43 44 43 47 44 45 45 45 44 44 42 42 43 43 43 45 48 48 54 58 56 62 64 62 61 61 62 63 64 65 65 65 66 67 68 68 68 68
44 43 44 46 44 43 43 44 46 48 44 42 43 44 46 44 45 47 48 49 56 59 63 61 60 59 60 61 62 62 61 63 63 64 65 66 67 67
45 45 45 46 44 43 42 42 44 42 43 42 43 44 41 43 47 44 47 45 48 57 60 60 60 59 59 61 62 60 60 61 62 62 62 63 65 65
45 46 46 47 50 48 44 42 43 43 42 42 42 43 41 42 44 43 45 44 45 51 54 55 55 56 56 58 60 60 58 60 61 61 60 60 61 62
43 45 46 47 46 51 52 52 48 42 41 42 42 41 41 42 45 43 43 45 43 47 51 51 55 53 54 55 59 59 58 59 60 60 59 59 59 60
44 43 42 46 46 45 47 50 51 53 51 44 42 42 42 45 46 45 43 44 43 46 49 47 51 51 53 55 57 58 58 58 58 58 58 58 58 59
45 43 42 42 43 43 42 43 42 43 46 45 45 46 47 48 48 48 45 45 46 47 48 46 49 49 52 53 56 57 58 57 56 57 57 57 57 57
44 44 41 41 45 49 45 42 42 44 50 50 47 50 53 52 49 45 42 43 40 42 46 47 47 46 49 50 51 55 56 56 56 57 57 56 56 56
43 42 47 45 47 49 44 43 41 42 43 46 46 48 52 51 54 47 46 43 40 41 46 46 45 46 44 47 49 50 53 55 54 55 56 56 55 50
41 40 41 47 49 50 50 45 44 45 44 43 43 44 44 45 47 46 46 47 41 41 46 50 46 45 45 43 45 47 50 50 51 53 54 54 53 51
41 42 41 47 49 50 49 49 50 49 41 42 41 40 40 41 44 46 46 45 46 46 47 49 47 47 44 43 43 45 47 48 48 48 49 53 53 52
44 44 45 47 49 48 49 51 51 46 42 41 40 40 40 42 42 43 44 45 45 46 49 50 49 48 49 45 43 44 44 46 47 47 46 47 47 48
47 45 46 46 47 46 45 44 44 44 43 42 41 38 39 39 40 41 43 43 42 42 46 49 50 49 45 45 46 45 46 45 46 46 44 44 45 46
43 41 37 37 37 40 40 41 42 43 41 40 40 38 39 40 40 41 42 46 41 41 43 43 46 49 47 46 44 46 45 45 47 45 44 43 43 45
40 38 35 37 35 35 36 37 41 43 41 39 39 39 39 39 40 42 41 42 42 44 45 41 41 43 45 45 49 45 44 45 44 45 44 43 43 44
35 33 34 34 35 35 35 35 36 39 39 39 39 39 40 41 44 45 45 42 42 43 43 41 42 42 41 41 42 47 44 45 44 43 44 43 43 44
36 37 38 39 37 37 36 36 36 37 37 38 38 39 41 45 44 44 44 45 45 46 43 43 43 44 44 43 42 43 45 46 45 44 43 44 45 49
35 35 36 37 39 40 40 41 42 42 37 37 38 39 40 42 43 44 45 45 46 46 44 43 44 51 48 48 43 41 42 42 47 45 44 44 43 43
35 35 36 36 36 37 38 40 41 42 41 40 38 39 40 41 44 44 45 44 44 45 44 44 45 47 46 47 43 40 41 42 43 46 48 48 44 42
34 34 35 36 36 36 37 37 38 41 43 43 43 44 43 44 45 45 45 45 44 46 45 44 46 47 46 46 45 44 42 44 45 45 46 46 46 47

GFSNE_sfc_temp_063.txt.gz
Temp
50 50 49 50 51 51 51 50 46 41 45 52 52 59 60 63 63 65 66 64 64 63 64 64 65 66 68 70 71 71 71 72 72 71 72 71 72 72
49 49 49 50 50 50 50 50 49 46 42 50 52 55 57 60 62 63 64 61 61 62 62 62 63 65 67 68 69 69 69 70 71 71 71 71 71 71
49 47 47 48 49 49 49 49 48 48 44 48 52 55 55 55 58 62 63 63 64 62 62 62 62 63 64 66 67 67 68 68 69 69 69 70 70 71
47 47 47 49 47 48 48 47 47 49 46 43 49 51 52 54 56 56 59 62 63 62 62 62 62 62 63 64 65 65 66 66 67 68 68 69 69 70
48 48 48 48 47 47 46 45 46 47 47 45 44 48 50 53 52 55 55 56 60 60 61 62 62 62 62 63 62 62 62 63 64 65 66 67 68 68
48 47 47 48 47 48 47 46 47 46 46 45 44 44 47 50 51 50 51 54 55 60 61 62 63 62 62 63 61 60 59 61 61 62 63 64 66 66
46 46 46 47 49 49 47 47 47 45 44 42 41 43 45 46 46 50 49 51 54 56 57 60 62 63 62 63 62 59 58 60 61 61 61 61 62 64
44 46 47 48 48 51 51 51 45 44 41 40 40 41 44 46 48 47 48 48 47 58 54 57 61 59 61 63 62 60 59 59 59 60 60 60 61 62
46 46 46 47 47 46 47 50 51 52 48 41 40 41 41 48 48 47 47 48 49 55 54 54 58 58 57 59 59 59 59 59 58 58 58 60 61 61
47 46 45 45 46 45 44 43 45 47 48 49 46 45 47 48 49 49 49 48 50 53 55 51 56 56 58 57 57 58 59 58 57 57 57 58 59 60
46 46 46 45 48 49 44 41 42 45 50 50 51 51 51 50 49 48 46 44 42 48 51 53 53 51 53 53 55 57 57 57 57 58 58 58 57 58
46 47 49 48 48 48 45 43 42 44 47 48 49 50 51 50 52 49 48 43 43 43 50 51 50 49 47 52 53 55 57 55 55 57 57 56 56 66
45 45 45 48 49 49 49 46 46 49 48 48 48 47 46 49 50 50 50 46 43 42 53 54 52 48 50 47 48 54 58 55 55 56 55 55 56 62
43 43 44 46 48 49 50 50 51 50 47 47 45 42 42 44 46 50 49 49 48 48 53 57 53 54 51 47 45 47 52 55 58 56 60 57 56 56
47 46 46 47 48 49 48 48 48 47 47 41 42 44 43 43 47 46 47 48 47 51 53 57 56 55 55 49 47 45 47 48 54 55 57 57 58 58
46 46 47 47 48 47 47 44 46 45 44 45 45 46 44 44 46 48 45 45 47 48 53 57 58 56 53 51 51 45 47 45 50 53 55 56 56 57
45 42 43 45 45 46 45 43 43 42 45 45 46 45 45 43 46 47 46 47 48 48 48 51 53 54 52 49 48 47 45 46 49 51 52 50 52 55
41 40 40 41 42 42 43 42 40 41 43 46 45 46 42 42 44 45 44 46 48 48 47 51 51 51 50 48 52 48 46 46 48 51 52 49 49 53
35 35 37 39 40 42 42 42 38 39 44 45 45 46 43 46 46 46 45 46 48 49 49 51 53 52 48 43 46 47 46 46 47 48 51 53 52 51
35 34 35 36 37 39 43 43 42 41 41 44 46 45 45 47 46 46 46 46 47 48 46 48 52 54 52 49 46 47 45 47 47 48 49 50 51 50
34 34 35 36 36 37 39 42 43 44 43 44 46 47 47 48 47 47 47 46 46 46 44 44 50 53 56 55 48 44 46 44 48 49 50 50 48 48
34 34 34 35 36 36 37 39 40 45 45 45 45 46 47 49 49 48 46 46 46 48 49 50 50 51 53 53 49 45 44 46 45 46 47 49 52 46
34 34 34 35 35 36 36 37 38 40 45 45 45 45 47 45 49 47 46 47 47 47 48 45 47 50 51 52 49 47 46 45 46 46 47 45 47 48

GFSNE_sfc_temp_069.txt.gz
Temp
57 57 56 57 57 57 56 54 49 43 46 53 55 61 62 64 64 64 63 64 64 64 64 64 65 65 66 67 68 68 69 71 71 72 73 73 73 73
57 56 55 55 54 53 52 51 49 45 40 50 52 55 59 62 63 63 62 62 62 63 64 63 63 64 64 65 65 66 67 69 70 71 71 71 72 72
54 52 52 52 50 50 49 49 47 46 41 46 50 53 55 55 59 61 61 60 61 63 63 63 62 62 62 63 63 64 65 66 68 69 70 70 70 70
51 51 51 52 49 51 50 49 48 49 45 42 47 48 50 53 55 56 59 62 61 63 63 63 62 61 61 61 61 62 63 64 66 68 68 69 69 70
51 50 50 50 50 50 50 49 48 49 48 46 45 49 49 50 50 53 54 57 61 61 62 62 62 61 61 61 60 60 60 61 63 65 66 67 68 68
52 51 50 49 48 48 48 49 49 46 46 44 44 45 47 49 49 47 48 53 55 61 62 62 62 61 60 60 60 59 58 59 61 62 63 63 66 67
49 49 49 50 52 51 49 47 47 45 45 44 43 44 45 45 45 47 47 50 53 56 57 58 58 58 59 61 60 59 58 59 60 61 62 61 62 65
46 48 49 51 52 53 54 54 51 42 41 43 42 42 45 47 48 47 47 47 46 56 53 54 58 57 59 61 61 60 59 59 59 60 61 61 61 63
47 48 49 52 51 51 52 52 53 53 52 43 41 42 45 50 50 47 47 47 47 52 53 49 56 54 59 63 61 59 60 58 58 59 59 59 61 62
48 49 48 48 49 48 47 46 46 47 48 50 46 44 45 46 48 49 49 48 50 51 52 46 54 53 58 60 59 59 59 57 57 58 59 59 59 60
47 49 47 45 48 51 47 46 45 45 50 52 52 52 51 49 47 44 42 42 42 45 52 48 50 51 53 57 58 57 56 56 56 58 59 58 58 59
46 47 47 46 49 52 47 46 44 44 45 46 48 50 51 49 50 48 47 43 44 44 51 46 47 49 47 53 55 57 57 55 55 56 57 57 56 61
42 44 43 46 48 51 51 46 44 46 46 45 46 48 50 49 48 49 49 48 45 45 52 49 48 48 48 49 52 55 57 56 57 56 55 55 55 60
42 43 43 46 49 51 50 49 48 49 48 47 46 47 46 47 49 50 50 50 51 50 52 51 48 48 48 48 48 52 55 57 57 56 56 56 56 56
45 45 47 47 49 50 50 49 49 49 46 45 45 45 47 48 50 49 49 50 51 51 52 51 49 48 46 48 48 49 51 53 56 56 56 55 57 57
44 42 42 47 48 49 49 49 48 46 45 45 45 46 48 45 44 45 44 46 45 47 51 51 50 47 43 48 50 50 52 50 54 56 56 56 57 57
42 38 38 42 43 44 45 45 45 43 42 43 45 46 45 45 44 45 44 45 44 44 44 46 48 49 46 49 49 50 50 52 53 55 55 53 55 56
39 35 34 36 38 41 42 44 44 41 41 43 46 44 43 41 43 45 45 44 43 44 44 45 44 43 47 48 51 48 51 52 53 55 55 53 51 54
36 35 34 35 36 38 40 42 40 40 42 43 45 46 47 45 44 43 43 42 42 41 47 48 48 47 44 42 46 46 47 52 52 52 54 54 50 53
37 35 34 34 35 36 37 39 41 41 42 44 47 46 45 45 45 43 43 46 46 47 47 47 48 48 46 44 43 45 43 52 53 51 51 53 52 50
36 35 35 35 35 36 37 38 40 41 42 45 44 44 46 46 47 47 46 48 48 47 45 45 49 51 49 50 44 44 45 44 51 52 50 49 48 49
36 35 35 35 35 36 37 37 38 41 42 45 46 48 49 50 49 49 48 48 48 48 47 48 51 51 49 47 43 44 44 46 46 46 47 51 50 45
34 34 34 35 36 36 36 37 38 39 41 42 47 48 50 49 50 49 49 48 48 48 47 46 49 49 48 47 45 44 45 45 46 45 45 46 49 50

GFSNE_sfc_temp_075.txt.gz
Temp
43 43 43 45 42 43 42 43 44 38 40 40 39 44 46 50 53 53 50 56 59 59 62 64 63 63 64 65 66 66 67 68 68 69 68 71 73 73
46 42 42 43 43 48 49 49 48 44 39 45 40 41 45 51 52 52 50 56 57 58 59 61 62 62 63 63 64 65 65 66 67 67 68 67 71 72
42 42 43 44 49 50 49 49 47 46 41 44 42 43 41 43 47 48 49 46 48 57 58 59 61 61 62 62 62 64 64 64 65 65 66 66 67 71
42 47 48 50 49 49 48 47 46 46 43 39 43 42 41 44 46 45 48 52 49 55 57 58 59 60 60 61 61 62 62 62 63 63 65 66 65 68
48 48 48 48 47 47 47 45 44 46 44 41 41 43 44 44 43 44 45 46 49 54 56 56 58 59 60 60 60 60 60 60 60 61 62 63 65 66
47 48 48 47 45 44 45 45 46 44 44 43 42 42 43 46 46 43 41 42 43 50 53 55 56 57 59 60 60 59 58 58 59 59 59 60 62 64
46 47 47 48 50 50 47 44 44 41 40 40 39 41 41 42 41 43 41 42 43 44 44 45 47 49 50 56 58 58 58 58 59 59 59 58 59 61
43 45 46 48 48 50 52 52 50 45 43 41 40 39 40 41 44 42 41 38 36 43 42 42 45 45 47 47 56 58 58 58 58 58 58 58 59 59
43 44 45 47 47 46 48 51 50 51 51 46 43 41 40 42 44 43 43 42 41 41 40 39 43 43 48 55 56 57 57 58 57 57 57 58 58 59
44 44 42 42 43 44 44 44 44 45 46 47 45 45 46 45 45 45 45 44 45 43 42 39 40 41 44 45 53 55 57 57 56 56 57 57 57 58
44 43 43 42 46 49 45 43 42 43 49 51 53 53 53 52 48 44 41 40 40 42 41 41 40 40 41 44 46 53 54 55 56 56 57 57 56 57
42 43 47 46 49 49 45 43 41 40 43 44 46 47 48 51 51 46 45 41 41 40 45 39 39 39 37 43 46 47 47 54 54 55 56 56 55 57
40 40 41 46 47 48 49 43 43 44 45 44 43 44 44 43 44 47 46 44 41 41 47 44 41 39 40 39 42 43 45 50 50 52 55 55 54 57
38 40 40 45 47 47 45 47 48 47 42 40 39 39 39 39 40 41 44 45 46 45 46 45 41 40 39 38 39 43 44 47 49 49 50 55 54 55
42 43 45 45 44 41 46 48 46 40 38 37 37 37 37 39 39 39 41 43 44 45 46 43 41 41 41 41 41 42 43 45 47 48 50 53 54 56
42 41 41 42 42 42 42 43 44 42 40 41 39 37 39 42 41 39 39 40 41 42 45 46 44 43 41 43 43 42 43 42 46 49 51 54 55 57
42 36 33 37 36 37 38 38 41 41 39 41 40 41 42 42 40 41 43 42 39 39 39 42 45 45 45 43 40 42 42 42 46 49 51 52 54 56
37 32 33 34 34 35 35 36 37 38 39 41 42 42 42 42 42 42 43 42 41 42 41 43 43 43 43 43 47 42 42 44 47 51 53 51 53 56
33 31 31 34 34 34 34 35 36 38 40 39 40 42 43 43 42 42 41 41 41 41 41 42 43 42 39 38 43 47 43 46 47 51 53 53 53 54
33 32 31 34 34 34 34 35 36 37 37 38 40 42 43 43 42 39 39 41 41 42 41 43 43 43 41 41 41 43 43 44 47 50 51 52 54 52
33 33 33 33 34 35 35 35 36 36 37 38 41 43 43 43 43 43 43 41 42 42 40 41 45 50 47 45 44 44 45 43 48 52 51 50 50 50
34 33 33 34 34 34 35 35 35 36 36 38 39 42 44 44 44 43 43 44 41 42 42 43 46 46 46 45 43 43 43 45 46 48 49 51 50 46
33 33 34 34 34 34 34 35 35 36 36 37 39 41 43 42 44 44 43 44 45 44 45 45 46 47 47 47 44 41 43 47 48 47 47 47 48 50